TimeEST,TemperatureF,Dew PointF,Humidity,Sea Level PressureIn,VisibilityMPH,Wind Direction,Wind SpeedMPH,Gust SpeedMPH,PrecipitationIn,Events,Conditions,WindDirDegrees,DateUTC
1:52 AM,28.9,19.9,69,30.14,10.0,NNE,6.9,-,N/A,,Overcast,30,2013-03-08 06:52:00
2:52 AM,28.0,19.9,72,30.12,10.0,North,5.8,-,N/A,,Overcast,360,2013-03-08 07:52:00
3:52 AM,28.0,19.9,72,30.13,10.0,North,4.6,-,N/A,,Overcast,360,2013-03-08 08:52:00
4:52 AM,28.0,19.9,72,30.12,10.0,North,9.2,-,N/A,,Overcast,350,2013-03-08 09:52:00
5:52 AM,28.9,19.0,67,30.14,10.0,NNE,8.1,-,N/A,,Overcast,20,2013-03-08 10:52:00
6:52 AM,28.9,19.0,67,30.15,10.0,Variable,5.8,-,N/A,,Overcast,0,2013-03-08 11:52:00
7:52 AM,30.0,18.0,61,30.16,10.0,NNW,6.9,-,N/A,,Overcast,340,2013-03-08 12:52:00
8:52 AM,30.0,18.0,61,30.17,10.0,North,8.1,-,N/A,,Overcast,10,2013-03-08 13:52:00
9:52 AM,32.0,17.1,54,30.18,10.0,North,11.5,-,N/A,,Overcast,10,2013-03-08 14:52:00
10:52 AM,33.1,18.0,54,30.19,10.0,North,9.2,-,N/A,,Overcast,10,2013-03-08 15:52:00
11:52 AM,35.1,18.0,50,30.19,10.0,North,8.1,-,N/A,,Clear,10,2013-03-08 16:52:00
12:52 PM,37.0,17.1,44,30.18,10.0,NNE,9.2,-,N/A,,Clear,30,2013-03-08 17:52:00
1:52 PM,39.0,16.0,39,30.18,10.0,NNE,8.1,17.3,N/A,,Clear,20,2013-03-08 18:52:00
2:52 PM,41.0,17.1,38,30.19,10.0,North,5.8,-,N/A,,Clear,10,2013-03-08 19:52:00
3:52 PM,42.1,16.0,35,30.19,10.0,North,10.4,-,N/A,,Clear,10,2013-03-08 20:52:00
4:52 PM,42.1,17.1,37,30.21,10.0,North,4.6,-,N/A,,Clear,350,2013-03-08 21:52:00
5:52 PM,37.9,17.1,43,30.22,10.0,NNE,4.6,-,N/A,,Clear,20,2013-03-08 22:52:00
6:52 PM,27.0,19.9,75,30.26,10.0,Calm,Calm,-,N/A,,Clear,0,2013-03-08 23:52:00
7:52 PM,24.1,18.0,77,30.27,10.0,Calm,Calm,-,N/A,,Clear,0,2013-03-09 00:52:00
8:52 PM,21.9,17.1,82,30.29,10.0,Calm,Calm,-,N/A,,Clear,0,2013-03-09 01:52:00
9:52 PM,19.0,16.0,88,30.30,10.0,Calm,Calm,-,N/A,,Clear,0,2013-03-09 02:52:00
10:52 PM,19.0,14.0,81,30.29,10.0,Calm,Calm,-,N/A,,Clear,0,2013-03-09 03:52:00
11:52 PM,17.1,12.9,84,30.29,10.0,Calm,Calm,-,N/A,,Clear,0,2013-03-09 04:52:00